TimeEST,TemperatureF,Dew PointF,Humidity,Sea Level PressureIn,VisibilityMPH,Wind Direction,Wind SpeedMPH,Gust SpeedMPH,PrecipitationIn,Events,Conditions,WindDirDegrees,DateUTC
12:51 AM,30.0,21.0,69,30.33,10.0,SSW,5.8,-,N/A,,Overcast,210,2013-01-04 05:51:00
1:51 AM,30.9,19.9,64,30.33,10.0,SW,5.8,-,N/A,,Overcast,230,2013-01-04 06:51:00
2:51 AM,30.0,21.0,69,30.35,10.0,WSW,9.2,-,N/A,,Overcast,240,2013-01-04 07:51:00
3:51 AM,30.2,21.2,69,30.33,10.0,West,11.5,18.4,N/A,,Overcast,260,2013-01-04 08:51:00
4:51 AM,30.0,21.0,69,30.34,10.0,WSW,5.8,-,N/A,,Overcast,240,2013-01-04 09:51:00
5:51 AM,30.0,21.0,69,30.34,10.0,SW,6.9,-,N/A,,Overcast,220,2013-01-04 10:51:00
6:51 AM,30.0,21.0,69,30.35,10.0,WSW,8.1,-,N/A,,Overcast,250,2013-01-04 11:51:00
7:51 AM,30.0,19.9,66,30.37,10.0,WSW,8.1,-,N/A,,Overcast,250,2013-01-04 12:51:00
8:51 AM,30.0,19.9,66,30.38,10.0,WSW,8.1,-,N/A,,Overcast,250,2013-01-04 13:51:00
9:51 AM,30.9,21.0,67,30.39,10.0,WSW,9.2,-,N/A,,Overcast,250,2013-01-04 14:51:00
10:51 AM,32.0,19.9,61,30.39,10.0,WSW,8.1,-,N/A,,Overcast,250,2013-01-04 15:51:00
11:39 AM,33.8,21.2,60,30.36,10.0,WSW,8.1,-,N/A,,Overcast,250,2013-01-04 16:39:00
11:51 AM,34.0,21.0,59,30.37,10.0,West,9.2,-,N/A,,Overcast,260,2013-01-04 16:51:00
12:51 PM,37.0,21.9,54,30.35,10.0,SW,12.7,18.4,N/A,,Mostly Cloudy,230,2013-01-04 17:51:00
1:51 PM,39.0,21.9,50,30.31,10.0,SW,8.1,-,N/A,,Mostly Cloudy,230,2013-01-04 18:51:00
2:51 PM,37.4,21.2,52,30.29,10.0,WSW,10.4,21.9,N/A,,Overcast,250,2013-01-04 19:51:00
3:51 PM,37.0,21.0,52,30.33,10.0,West,12.7,20.7,N/A,,Mostly Cloudy,260,2013-01-04 20:51:00
4:51 PM,36.0,21.9,57,30.33,10.0,WSW,11.5,-,N/A,,Mostly Cloudy,250,2013-01-04 21:51:00
5:51 PM,36.0,21.9,57,30.35,10.0,WSW,10.4,19.6,N/A,,Mostly Cloudy,250,2013-01-04 22:51:00
6:51 PM,34.0,21.9,61,30.35,10.0,SW,10.4,-,N/A,,Clear,230,2013-01-04 23:51:00
7:51 PM,33.1,21.9,64,30.37,10.0,WSW,6.9,-,N/A,,Clear,240,2013-01-05 00:51:00
8:51 PM,32.0,21.9,66,30.38,10.0,WSW,6.9,-,N/A,,Clear,240,2013-01-05 01:51:00
9:51 PM,30.9,21.9,69,30.38,10.0,SW,4.6,-,N/A,,Clear,230,2013-01-05 02:51:00
10:51 PM,30.0,21.9,72,30.38,10.0,SW,3.5,-,N/A,,Clear,220,2013-01-05 03:51:00
11:51 PM,28.9,21.9,75,30.38,10.0,SSW,4.6,-,N/A,,Clear,210,2013-01-05 04:51:00